Regional Weather Roundup
Issued by NWS

Home | Current Version | Previous Version | Text Only | Print | Product List | Glossary Off
Versions: 1 2 3 4 5 6 7 8 9 10 11 12 13 14 15 16 17 18 19 20 21 22 23 24 25 26 27 28 29 30 31 32 33 34 35 36 37 38 39 40 41 42 43 44 45 46 47 48 49 50

000
ASUS45 KCYS 251210
RWRWY

WYOMING REGIONAL WEATHER ROUNDUP
NATIONAL WEATHER SERVICE CHEYENNE WY
600 AM MDT FRI JUL 25 2014

NOTE:  "FAIR" INDICATES FEW OR NO CLOUDS BELOW 12,000 FEET
WITH NO SIGNIFICANT WEATHER AND/OR OBSTRUCTIONS TO VISIBILITY.

WYZ001-251300-
YELLOWSTONE NATIONAL PARK

CITY           SKY/WX    TMP DP  RH WIND       PRES   REMARKS
LK YELLOWSTONE   N/A     29  23  78 CALM      30.28R
6HR MIN TEMP:  29; 6HR MAX TEMP:  43;

W YELLOWSTONE  NOT AVBL

$$
WYZ002>013-054>058-071-098>099-251300-
NORTHERN WYOMING

CITY           SKY/WX    TMP DP  RH WIND       PRES   REMARKS
JACKSON        CLEAR     36  28  75 NE5       30.20S WCI  32
CODY           NOT AVBL
GREYBULL       CLEAR     59  39  47 NW6       29.99R
6HR MIN TEMP:  59; 6HR MAX TEMP:  77;

WORLAND        PTCLDY    57  36  45 CALM      30.00R
6HR MIN TEMP:  53; 6HR MAX TEMP:  72;

SHERIDAN       CLEAR     50  46  86 CALM      30.02R
6HR MIN TEMP:  50; 6HR MAX TEMP:  63;

BUFFALO        CLEAR     53  45  74 S6        30.08R
6HR MIN TEMP:  53; 6HR MAX TEMP:  66;

GILLETTE       CLEAR     49  44  83 CALM      30.04R
6HR MIN TEMP:  47; 6HR MAX TEMP:  65;

HULETT         FAIR      52  45  76 MISG      30.04
NEWCASTLE      FAIR      59  34  38 NW3       30.00

$$
WYZ014>020-022>026-101>103-251300-
CENTRAL WYOMING

CITY           SKY/WX    TMP DP  RH WIND       PRES   REMARKS
BIG PINEY      PTCLDY    42  26  53 N5        30.23R
6HR MIN TEMP:  40; 6HR MAX TEMP:  57;

PINEDALE       MOSUNNY   41  34  75 NW6       30.24R
DUBOIS         FAIR      46  18  31 NW21      30.17S
LANDER         PTCLDY    60  24  25 CALM      30.07R
6HR MIN TEMP:  55; 6HR MAX TEMP:  73;

RIVERTON       MOCLDY    60  24  25 N7        30.08R
6HR MIN TEMP:  60; 6HR MAX TEMP:  70;

CASPER         MOCLDY    55  48  77 SE10      30.10S
6HR MIN TEMP:  53; 6HR MAX TEMP:  70;

DOUGLAS        CLEAR     54  50  86 W5        30.12R
6HR MIN TEMP:  54; 6HR MAX TEMP:  73;


$$
WYZ021-027>030-104>119-251300-
SOUTHERN WYOMING

CITY           SKY/WX    TMP DP  RH WIND       PRES   REMARKS
EVANSTON       PTCLDY    57  36  45 E3        30.22S
6HR MIN TEMP:  53; 6HR MAX TEMP:  67;

KEMMERER       SUNNY     50  30  46 N13       30.23S
FORT BRIDGER   FAIR      58  33  38 W9        30.24R
ROCK SPRINGS   PTCLDY    61  27  27 E5        30.18S
6HR MIN TEMP:  55; 6HR MAX TEMP:  70;

DIXON          FAIR      65  45  48 SE5       30.23R
RAWLINS        CLEAR     65  44  46 SW12      30.19R
6HR MIN TEMP:  60; 6HR MAX TEMP:  69;

SARATOGA       FAIR      64  41  42 SE16      30.23R
LARAMIE        MOCLDY    59  45  59 SE10      30.22F
6HR MIN TEMP:  55; 6HR MAX TEMP:  68;

CHEYENNE       PTCLDY    70  45  40 W16G22    30.12R
6HR MIN TEMP:  65; 6HR MAX TEMP:  72;

TORRINGTON     PTCLDY    64  55  72 N9        30.02R
6HR MIN TEMP:  62; 6HR MAX TEMP:  75;

PINE BLUFFS    FAIR      55  50  82 W6        30.07S

$$



USA.gov is the U.S. government's official web portal to all federal, state and local government web resources and services.